Ulladulla Observation History
Time Wind Speed Temp Pressure Rel. Hum Rain
14/10:00am WNW 6-9 kts 16.4°c 1012.1 hPa 44% 0.0mm
14/09:30am WNW 6-11 kts 16.1°c 1011.8 hPa 46% 0.0mm
14/09:00am WNW 6-12 kts 15.5°c 1011.7 hPa 47% 0.0mm
14/08:30am WNW 7-15 kts 15.2°c 1011.3 hPa 51% 0.0mm
14/08:00am WNW 6-13 kts 14.5°c 1010.8 hPa 55% 0.0mm
14/07:30am WNW 7-13 kts 14.0°c 1010.3 hPa 56% 0.0mm
14/07:00am WNW 6-13 kts 13.4°c 1010.0 hPa 57% 0.0mm
14/06:30am WNW 6-12 kts 13.5°c 1009.7 hPa 56% 0.0mm
14/06:00am WNW 7-11 kts 13.8°c 1009.2 hPa 57% 0.0mm
14/05:30am WNW 4-8 kts 13.6°c 1008.8 hPa 60% 0.0mm
14/05:00am WNW 4-8 kts 13.7°c 1008.4 hPa 62% 0.0mm
14/04:30am WNW 1-2 kts 12.8°c 1008.3 hPa 64% 0.0mm
14/04:00am W 3-7 kts 14.0°c 1008.2 hPa 60% 0.0mm
14/03:30am W 5-10 kts 14.6°c 1008.1 hPa 58% 0.0mm
14/03:00am W 7-14 kts 14.9°c 1007.9 hPa 57% 0.0mm
14/02:30am W 4-8 kts 14.3°c 1008.1 hPa 59% 0.0mm
14/02:00am WNW 2-3 kts 13.7°c 1008.2 hPa 61% 0.0mm
14/01:30am W 3-5 kts 14.4°c 1008.4 hPa 59% 0.0mm
14/01:00am WNW 4-8 kts 14.8°c 1008.5 hPa 57% 0.0mm
14/12:30am WNW 4-7 kts 14.9°c 1008.8 hPa 57% 0.0mm
14/12:00am W 4-7 kts 15.0°c 1008.8 hPa 57% 0.0mm
Time Wind Speed Temp Pressure Rel. Hum Rain
13/11:30pm WNW 4-6 kts 15.1°c 1008.9 hPa 57% 0.0mm
13/11:00pm W 5-11 kts 15.7°c 1009.2 hPa 55% 0.0mm
13/10:30pm WNW 8-13 kts 16.3°c 1009.2 hPa 54% 0.0mm
13/10:00pm WNW 7-15 kts 16.4°c 1009.1 hPa 53% 0.0mm
13/09:30pm WNW 8-13 kts 16.6°c 1009.1 hPa 52% 0.0mm
13/09:00pm WNW 8-21 kts 17.0°c 1008.8 hPa 51% 0.0mm
13/08:30pm WNW 8-16 kts 17.4°c 1008.7 hPa 52% 0.0mm
13/08:00pm WNW 8-18 kts 17.8°c 1008.7 hPa 50% 0.0mm
13/07:30pm WNW 8-15 kts 18.1°c 1008.7 hPa 48% 0.0mm
13/07:00pm WNW 6-12 kts 18.2°c 1008.5 hPa 47% 0.0mm
13/06:30pm NW 4-9 kts 17.8°c 1008.4 hPa 48% 0.0mm
13/06:00pm NW 5-13 kts 18.1°c 1008.5 hPa 47% 0.0mm
13/05:30pm NW 4-7 kts 18.2°c 1008.3 hPa 50% 0.0mm
13/05:00pm NW 6-9 kts 18.8°c 1008.2 hPa 51% 0.0mm
13/04:30pm NW 5-8 kts 19.0°c 1008.5 hPa 53% 0.0mm
13/04:00pm NW 9-16 kts 19.4°c 1008.5 hPa 50% 0.0mm
13/03:30pm WNW 7-14 kts 21.0°c 1008.7 hPa 48% 0.0mm
13/03:00pm WNW 7-11 kts 20.7°c 1008.7 hPa 44% 0.0mm
13/02:30pm WNW 5-9 kts 22.1°c 1008.5 hPa 41% 0.0mm
13/02:00pm NNE 2-6 kts 20.5°c 1008.9 hPa 59% 0.0mm
13/01:30pm NNE 1-5 kts 21.2°c 1009.2 hPa 54% 0.0mm
13/01:00pm N 3-9 kts 21.4°c 1010.0 hPa 52% 0.0mm
13/12:30pm NW 6-12 kts 21.8°c 1010.6 hPa 48% 0.0mm
13/12:00pm WNW 6-10 kts 21.5°c 1011.2 hPa 48% 0.0mm
13/11:30am W 7-12 kts 21.1°c 1011.9 hPa 49% 0.0mm
13/11:00am W 3-8 kts 20.4°c 1012.4 hPa 51% 0.0mm
13/10:30am WSW 3-6 kts 20.1°c 1012.9 hPa 55% 0.0mm
13/10:00am W 3-7 kts 20.0°c 1013.3 hPa 59% 0.0mm
13/09:30am WSW 3-6 kts 18.9°c 1013.6 hPa 64% 0.0mm
13/09:00am SW 2-4 kts 17.9°c 1013.9 hPa 70% 0.0mm
13/08:30am W 2-4 kts 17.5°c 1014.0 hPa 71% 0.0mm
13/08:00am W 3-5 kts 16.0°c 1014.0 hPa 77% 0.0mm
13/07:30am W 3-4 kts 14.1°c 1014.0 hPa 85% 0.0mm
13/07:00am WNW 2-3 kts 12.8°c 1013.9 hPa 85% 0.0mm
13/06:30am W 3-5 kts 13.0°c 1013.9 hPa 86% 0.0mm
13/06:00am W 5-6 kts 12.9°c 1014.1 hPa 87% 0.0mm
13/05:30am W 4-5 kts 12.8°c 1014.2 hPa 87% 0.0mm
13/05:00am W 4-5 kts 12.8°c 1014.3 hPa 87% 0.0mm
13/04:30am W 3-5 kts 13.1°c 1014.5 hPa 87% 0.0mm
13/04:00am WSW 4-5 kts 13.4°c 1014.8 hPa 86% 0.0mm
13/03:30am WSW 5-6 kts 13.8°c 1014.9 hPa 87% 0.0mm
13/03:00am WSW 4-6 kts 13.6°c 1015.1 hPa 87% 0.0mm
13/02:30am WSW 2-4 kts 14.0°c 1015.3 hPa 85% 0.0mm
13/02:00am WSW 5-8 kts 14.7°c 1015.7 hPa 86% 0.0mm
13/01:30am WSW 5-7 kts 14.8°c 1016.1 hPa 86% 0.0mm
13/01:00am WSW 7-11 kts 15.4°c 1016.1 hPa 85% 0.0mm
13/12:30am WSW 8-11 kts 15.4°c 1016.5 hPa 87% 0.0mm
13/12:00am WSW 6-9 kts 15.2°c 1017.1 hPa 88% 0.0mm
Time Wind Speed Temp Pressure Rel. Hum Rain
12/11:30pm WSW 7-9 kts 15.5°c 1017.4 hPa 88% 0.0mm
12/11:00pm WSW 7-10 kts 15.6°c 1017.8 hPa 87% 0.0mm
12/10:30pm WSW 6-10 kts 15.7°c 1018.3 hPa 88% 0.0mm
12/10:00pm WSW 6-9 kts 15.7°c 1018.7 hPa 88% 0.0mm
12/09:30pm W 5-8 kts 15.7°c 1018.6 hPa 88% 0.0mm
12/09:00pm W 4-7 kts 15.6°c 1018.7 hPa 87% 0.0mm
12/08:30pm WSW 6-8 kts 15.8°c 1018.7 hPa 88% 0.0mm
12/08:00pm WSW 5-8 kts 15.5°c 1018.8 hPa 89% 0.0mm
12/07:30pm W 5-7 kts 15.5°c 1018.8 hPa 88% 0.0mm
12/07:00pm WSW 4-5 kts 15.7°c 1019.0 hPa 87% 0.0mm
12/06:30pm WSW 3-5 kts 15.8°c 1019.0 hPa 86% 0.0mm
12/06:00pm SW 3-4 kts 16.4°c 1018.6 hPa 85% 0.0mm
12/05:30pm SSW 6-9 kts 17.4°c 1018.3 hPa 83% 0.0mm
12/05:00pm SSW 6-10 kts 17.6°c 1018.3 hPa 83% 0.0mm
12/04:30pm SSW 10-13 kts 18.1°c 1018.7 hPa 80% 0.0mm
12/04:00pm S 8-11 kts 18.1°c 1018.6 hPa 80% 0.0mm
12/03:30pm S 9-11 kts 18.5°c 1018.7 hPa 78% 0.0mm
12/03:00pm S 7-10 kts 18.1°c 1018.8 hPa 78% 0.0mm
12/02:30pm S 8-10 kts 18.9°c 1018.7 hPa 73% 0.0mm
12/02:00pm SSW 11-13 kts 18.3°c 1018.7 hPa 76% 0.0mm
12/01:30pm S 11-13 kts 18.6°c 1019.0 hPa 74% 0.0mm
12/01:00pm S 10-12 kts 18.5°c 1019.4 hPa 74% 0.0mm
12/12:30pm SSW 10-12 kts 18.3°c 1019.7 hPa 75% 0.0mm
12/12:00pm S 9-12 kts 18.3°c 1020.3 hPa 74% 0.0mm
12/11:30am S 7-10 kts 18.3°c 1020.6 hPa 70% 0.0mm
12/11:00am SSW 4-7 kts 18.2°c 1020.9 hPa 71% 0.0mm
12/10:30am SSW 5-8 kts 17.8°c 1021.1 hPa 72% 0.0mm
12/10:00am SSW 5-8 kts 17.5°c 1021.2 hPa 72% 0.0mm
12/09:30am SSW 6-8 kts 17.4°c 1021.3 hPa 74% 0.0mm
12/09:00am SSW 5-8 kts 17.0°c 1021.3 hPa 76% 17.2mm
12/08:30am SSW 6-8 kts 16.3°c 1021.1 hPa 76% 17.2mm
12/08:00am SW 5-7 kts 15.6°c 1020.9 hPa 78% 17.2mm
12/07:30am W 4-6 kts 14.2°c 1020.5 hPa 83% 17.2mm
12/07:00am W 2-3 kts 13.0°c 1020.2 hPa 84% 17.2mm
12/06:30am W 3-5 kts 13.4°c 1019.9 hPa 83% 17.2mm
12/06:00am W 4-5 kts 13.7°c 1019.7 hPa 83% 17.2mm
12/05:30am W 4-6 kts 13.7°c 1019.8 hPa 83% 17.2mm
12/05:00am WSW 3-5 kts 13.3°c 1019.5 hPa 86% 17.2mm
12/04:30am W 1-3 kts 13.1°c 1019.3 hPa 87% 17.2mm
12/04:00am W 2-3 kts 13.2°c 1019.1 hPa 86% 17.2mm
12/03:30am W 2-3 kts 13.2°c 1018.9 hPa 86% 17.2mm
12/03:00am WSW 3-5 kts 13.4°c 1019.1 hPa 87% 17.2mm
12/02:30am W 3-5 kts 13.5°c 1019.2 hPa 87% 17.2mm
12/02:00am SW 3-5 kts 13.8°c 1019.5 hPa 85% 17.2mm
12/01:30am SW 4-5 kts 13.9°c 1019.7 hPa 86% 17.2mm
12/01:00am WSW 3-4 kts 13.4°c 1019.7 hPa 89% 17.2mm
12/12:30am W 4-6 kts 13.2°c 1019.5 hPa 90% 17.2mm
12/12:00am WNW 2-3 kts 13.8°c 1019.5 hPa 88% 17.2mm